Orbital Elements at Epoch 2459200.5 (2020-Dec-17.0) TDB
Reference: JPL 11 (heliocentric ecliptic J2000)
Element | Value | Uncertainty (1-sigma) | Units |
e | .02918504171146712 | 7.2202e-08 | |
a | 1.884935012731929 | 8.7554e-09 | au |
q | 1.829923105761943 | 1.3457e-07 | au |
i | 23.29082133269156 | 8.1821e-06 | deg |
node | 71.55295096649166 | 1.3222e-05 | deg |
peri | 172.4341617281772 | 8.6771e-05 | deg |
M | 99.03984731199284 | 8.7375e-05 | deg |
tp | 2458940.453830747958 (2020-Mar-31.95383075) | 0.00022903 | TDB |
period | 945.2419755437066 2.59 | 6.5859e-06 1.803e-08 | d yr |
n | .3808548597230108 | 2.6536e-09 | deg/d |
Q | 1.939946919701915 | 9.0109e-09 | au |
|
| | Orbit Determination Parameters
Additional Information
|